User: anonymous   Login
Location: Seminole
(32.7190°N, 102.6440°W)
Time: 08:47:45
(UTC-05:00)
Language:

Meteor 2-10 - Orbit

View from above orbital plane
View from above orbital plane
View from above satellite
View from above satellite

Ground track
Ground track

The orbit data is extracted from the following two-line orbital elements,

1 14452U 83109A   16274.51882188  .00000091  00000-0  30753-4 0  9990
2 14452  81.1641 338.4180 0091801  54.7915 306.1816 14.26409897712001
Epoch (UTC): 30 September 2016 12:27:06
Eccentricity: 0.0091801
inclination: 81.1641°
perigee height: 738 km
apogee height: 869 km
right ascension of ascending node: 338.4180°
argument of perigee: 54.7915°
revolutions per day: 14.26409897
mean anomaly at epoch: 306.1816°
orbit number at epoch: 71200

The dashed part of the orbit path shows where the satellite is in the earth's shadow,  

DLR